This demonstration page uses our WeatherBlox Daily Observations layout. Learn more.

Left ArrowRight Arrow

34.02893, -84.19858

Hourly Observations for November 2, 2016

Temp ( °F °C ) Dew Point ( °F °C ) Humidity (%) Winds ( mph kmh ) Pressure ( in mb ) Visibility ( mi km ) Precip ( " mm )
12:53 am 00:53 Clear 64 17.8 57 13.9 78 78 Calm 30.26 1025 10 16 0.00 0.00
1:53 am 01:53 Clear 63 17.2 58 14.4 84 84 Calm 30.26 1025 10 16 0.00 0.00
2:53 am 02:53 Clear 62 16.7 58 14.4 86 86 Calm 30.27 1025 9 14 0.00 0.00
3:53 am 03:53 Clear 61 16.1 58 14.4 90 90 VRB 3 6 30.27 1025 8 13 0.00 0.00
4:53 am 04:53 Clear with Mist and Fog 61 16.1 58 14.4 90 90 Calm 30.27 1025 6 10 0.00 0.00
5:11 am 05:11 Partly Cloudy with Mist and Fog 61 16.1 58 14.4 90 90 Calm 30.30 1026 6 10 0.00 0.00
5:21 am 05:21 Mostly Cloudy with Mist and Fog 61 16.1 58 14.4 90 90 Calm 30.30 1026 5 8 0.00 0.00
5:53 am 05:53 Cloudy with Mist and Fog 61 16.1 59 15 93 93 E 3 6 30.28 1025 5 8 0.00 0.00
6:53 am 06:53 Cloudy with Mist and Fog 62 16.7 59 15 90 90 Calm 30.29 1026 5 8 0.00 0.00
7:23 am 07:23 Cloudy with Mist and Fog 62 16.7 60 15.6 93 93 Calm 30.33 1027 4 6 0.00 0.00
7:53 am 07:53 Cloudy with Mist and Fog 62 16.7 60 15.6 93 93 E 3 6 30.32 1027 3 5 0.00 0.00
8:09 am 08:09 Cloudy with Mist and Fog 62 16.7 60 15.6 93 93 E 5 7 30.36 1028 2 3 0.00 0.00
8:46 am 08:46 Cloudy with Mist and Fog 63 17 61 16 94 94 VRB 5 7 30.36 1028 3 4 0.00 0.00
8:53 am 08:53 Cloudy with Mist and Fog 63 17.2 60 15.6 90 90 VRB 3 6 30.34 1028 3 5 0.00 0.00
9:19 am 09:19 Cloudy with Mist and Fog 63 17.2 60 15.6 90 90 VRB 5 7 30.36 1028 5 8 0.00 0.00
9:53 am 09:53 Cloudy with Mist and Fog 64 17.8 60 15.6 87 87 VRB 3 6 30.35 1028 6 10 0.00 0.00
10:23 am 10:23 Cloudy 66 18.9 59 15 78 78 Calm 30.39 1029 8 13 0.00 0.00
10:53 am 10:53 Cloudy 67 19.4 59 15 76 76 ESE 5 7 30.35 1028 9 14 0.00 0.00
11:33 am 11:33 Partly Cloudy 69 20.6 59 15 70 70 Calm 30.36 1028 10 16 0.00 0.00
11:53 am 11:53 Partly Cloudy 69 20.6 60 15.6 73 73 E 3 6 30.35 1028 10 16 0.00 0.00
12:00 pm 12:00 Mostly Cloudy 70 21 61 16 73 73 ESE 3 6 30.36 1028 10 16 0.00 0.00
12:53 pm 12:53 Cloudy 71 21.7 60 15.6 68 68 Calm 30.34 1028 10 16 0.00 0.00
1:27 pm 13:27 Mostly Cloudy 72 22.2 60 15.6 66 66 SSE 5 7 30.33 1027 10 16 0.00 0.00
1:53 pm 13:53 Mostly Sunny 74 23.3 60 15.6 62 62 S 6 9 30.31 1026 10 16 0.00 0.00
2:10 pm 14:10 Mostly Cloudy 73 23 61 16 65 65 Calm 30.30 1026 10 16 0.00 0.00
2:50 pm 14:50 Mostly Cloudy 75 24 59 15 57 57 VRB 5 7 30.30 1026 10 16 0.00 0.00
2:53 pm 14:53 Mostly Cloudy 76 24.4 59 15 56 56 SSE 5 7 30.29 1026 10 16 0.00 0.00
3:53 pm 15:53 Partly Cloudy 75 23.9 59 15 58 58 SSW 7 11 30.27 1025 10 16 0.00 0.00
4:53 pm 16:53 Sunny 75 23.9 57 13.9 54 54 Calm 30.27 1025 10 16 0.00 0.00
5:53 pm 17:53 Sunny 74 23.3 58 14.4 57 57 Calm 30.26 1025 10 16 0.00 0.00
6:53 pm 18:53 Clear 69 20.6 59 15 70 70 Calm 30.26 1025 10 16 0.00 0.00
7:53 pm 19:53 Clear 67 19.4 58 14.4 73 73 Calm 30.27 1025 10 16 0.00 0.00
8:53 pm 20:53 Clear 65 18.3 59 15 81 81 Calm 30.27 1025 10 16 0.00 0.00
9:53 pm 21:53 Clear 63 17.2 59 15 87 87 Calm 30.28 1025 10 16 0.00 0.00
10:53 pm 22:53 Clear 61 16.1 58 14.4 90 90 Calm 30.27 1025 8 13 0.00 0.00
11:53 pm 23:53 Clear 60 15.6 57 13.9 90 90 Calm 30.27 1025 8 13 0.00 0.00

Powered by AerisWeather